Chickasha, OK

7:23 PM CDT on May 26, 2017 (GMT -0500)
Chickasha Municipal

Weather History for KCHK - October, 2012

Change the Weather History Date:

Friday, October 19, 2012

  Actual Average Record
Temperature  
Mean Temperature 59 °F -  
Max Temperature 77 °F 73 °F 91 °F (1974)
Min Temperature 41 °F 44 °F 27 °F (1989)
Degree Days  
Heating Degree Days 6    
Growing Degree Days 9 (Base 50)    
Moisture  
Dew Point 34 °F    
Average Humidity 43    
Maximum Humidity 70    
Minimum Humidity 22    
Precipitation  
Precipitation 0.00 in - - ()
Sea Level Pressure  
Sea Level Pressure 29.94 in    
Wind  
Wind Speed 9 mph (WNW)    
Max Wind Speed 18 mph    
Max Gust Speed 23 mph    
Visibility 10 miles    
Events      
Averages and records for this station are not official NWS values.
T = Trace of Precipitation, MM = Missing Value Source: NWS Daily Summary

Daily Weather History Graph

Daily Weather History Graph

Search for Another Location

Airport or City:

Trip Planner

Search our weather history database for the weather conditions in past years. The results will help you decide how hot, cold, wet, or windy it might be!

Date:

Astronomy

Oct. 19, 2012 Rise Set
Actual Time 7:41 AM CDT 6:51 PM CDT
Civil Twilight 7:16 AM CDT 7:16 PM CDT
Nautical Twilight 6:46 AM CDT 7:46 PM CDT
Astronomical Twilight 6:17 AM CDT 8:15 PM CDT
Moon 12:18 PM CDT (10/19) 10:38 PM CDT (10/19)
Length of Visible Light 12h 00m
Length of Day
11h 09m
Waxing Crescent, 24% of the Moon is Illuminated
Oct 19
Waxing Crescent
Oct 21
First Quarter
Oct 29
Full
Nov 6
Last Quarter
Nov 13
New

Hourly Weather History & Observations

Time (CDT) Temp. Windchill Dew Point Humidity Pressure Visibility Wind Dir Wind Speed Gust Speed Precip Events Conditions
1:35 AM 46.4 °F 42.4 °F 35.6 °F 66% 29.97 in 10.0 mi NW 8.1 mph - N/A   Clear
1:55 AM 48.2 °F - 35.6 °F 62% 29.97 in 10.0 mi WNW 8.1 mph - N/A   Clear
2:15 AM 46.4 °F 42.4 °F 35.6 °F 66% 29.97 in 10.0 mi NW 8.1 mph - N/A   Clear
2:35 AM 48.2 °F - 33.8 °F 58% 29.97 in 10.0 mi WNW 8.1 mph - N/A   Clear
2:55 AM 48.2 °F - 33.8 °F 58% 29.97 in 10.0 mi WNW 5.8 mph - N/A   Clear
3:15 AM 46.4 °F 42.4 °F 32.0 °F 57% 29.97 in 10.0 mi WNW 8.1 mph - N/A   Clear
3:35 AM 46.4 °F 42.9 °F 33.8 °F 62% 29.97 in 10.0 mi WNW 6.9 mph - N/A   Clear
3:55 AM 44.6 °F 41.4 °F 33.8 °F 66% 29.97 in 10.0 mi WNW 5.8 mph - N/A   Clear
4:15 AM 42.8 °F 39.3 °F 32.0 °F 66% 29.98 in 10.0 mi WNW 5.8 mph - N/A   Clear
4:35 AM 42.8 °F 38.0 °F 32.0 °F 66% 29.98 in 10.0 mi West 8.1 mph - N/A   Clear
4:55 AM 42.8 °F 37.5 °F 32.0 °F 66% 29.98 in 10.0 mi West 9.2 mph - N/A   Clear
5:15 AM 42.8 °F 38.0 °F 32.0 °F 66% 29.98 in 10.0 mi West 8.1 mph - N/A   Clear
5:35 AM 41.0 °F 35.8 °F 32.0 °F 70% 29.98 in 10.0 mi West 8.1 mph - N/A   Clear
5:55 AM 41.0 °F 35.8 °F 32.0 °F 70% 29.99 in 10.0 mi NW 8.1 mph - N/A   Clear
6:15 AM 46.4 °F 41.9 °F 32.0 °F 57% 29.99 in 10.0 mi NW 9.2 mph - N/A   Clear
6:35 AM 42.8 °F 37.5 °F 30.2 °F 61% 29.99 in 10.0 mi WNW 9.2 mph - N/A   Clear
6:55 AM 42.8 °F 36.6 °F 30.2 °F 61% 29.99 in 10.0 mi WNW 11.5 mph - N/A   Clear
7:15 AM 46.4 °F 41.5 °F 30.2 °F 53% 29.99 in 10.0 mi WNW 10.4 mph - N/A   Clear
7:35 AM 44.6 °F 39.2 °F 30.2 °F 57% 29.99 in 10.0 mi WNW 10.4 mph - N/A   Scattered Clouds
7:55 AM 44.6 °F 39.7 °F 30.2 °F 57% 29.99 in 10.0 mi NW 9.2 mph - N/A   Scattered Clouds
8:15 AM 46.4 °F 41.9 °F 30.2 °F 53% 29.99 in 10.0 mi NW 9.2 mph - N/A   Clear
8:35 AM 48.2 °F - 32.0 °F 54% 29.99 in 10.0 mi NW 8.1 mph - N/A   Clear
8:55 AM 50.0 °F - 32.0 °F 50% 30.00 in 10.0 mi WNW 8.1 mph - N/A   Clear
9:15 AM 53.6 °F - 32.0 °F 44% 30.00 in 10.0 mi WNW 8.1 mph - N/A   Clear
9:35 AM 55.4 °F - 32.0 °F 41% 30.01 in 10.0 mi WNW 8.1 mph - N/A   Clear
9:55 AM 59.0 °F - 30.2 °F 34% 30.02 in 10.0 mi NW 13.8 mph - N/A   Clear
10:15 AM 60.8 °F - 28.4 °F 29% 30.02 in 10.0 mi NW 15.0 mph - N/A   Clear
10:35 AM 60.8 °F - 28.4 °F 29% 30.02 in 10.0 mi NNW 13.8 mph - N/A   Clear
10:55 AM 62.6 °F - 28.4 °F 27% 30.02 in 10.0 mi NNW 18.4 mph 23.0 mph N/A   Clear
11:15 AM 62.6 °F - 28.4 °F 27% 30.02 in 10.0 mi NNW 13.8 mph - N/A   Clear
11:35 AM 66.2 °F - 30.2 °F 26% 30.02 in 10.0 mi NNW 17.3 mph - N/A   Clear
11:55 AM 66.2 °F - 30.2 °F 26% 30.02 in 10.0 mi NW 17.3 mph 21.9 mph N/A   Clear
12:15 PM 68.0 °F - 30.2 °F 24% 30.01 in 10.0 mi NNW 16.1 mph 21.9 mph N/A   Clear
12:35 PM 68.0 °F - 30.2 °F 24% 30.01 in 10.0 mi NNW 13.8 mph 20.7 mph N/A   Clear
12:55 PM 68.0 °F - 30.2 °F 24% 30.00 in 10.0 mi NNW 16.1 mph - N/A   Clear
1:15 PM 68.0 °F - 28.4 °F 23% 29.99 in 10.0 mi NNW 16.1 mph - N/A   Clear
1:35 PM 71.6 °F - 30.2 °F 22% 29.98 in 10.0 mi WNW 15.0 mph - N/A   Clear
1:55 PM 71.6 °F - 30.2 °F 22% 29.96 in 10.0 mi WNW 15.0 mph - N/A   Clear
2:15 PM 73.4 °F - 32.0 °F 22% 29.95 in 10.0 mi NW 17.3 mph - N/A   Clear
2:35 PM 73.4 °F - 32.0 °F 22% 29.94 in 10.0 mi NNW 15.0 mph 18.4 mph N/A   Clear
2:55 PM 73.4 °F - 32.0 °F 22% 29.93 in 10.0 mi NW 9.2 mph - N/A   Clear
3:15 PM 73.4 °F - 32.0 °F 22% 29.92 in 10.0 mi NW 11.5 mph 21.9 mph N/A   Clear
3:35 PM 73.4 °F - 32.0 °F 22% 29.91 in 10.0 mi NW 13.8 mph 18.4 mph N/A   Clear
3:55 PM 73.4 °F - 33.8 °F 23% 29.90 in 10.0 mi NW 13.8 mph - N/A   Clear
4:15 PM 77.0 °F - 35.6 °F 22% 29.89 in 10.0 mi WNW 12.7 mph 20.7 mph N/A   Clear
4:35 PM 75.2 °F - 33.8 °F 22% 29.89 in 10.0 mi WNW 11.5 mph - N/A   Clear
4:55 PM 77.0 °F - 35.6 °F 22% 29.88 in 10.0 mi West 9.2 mph - N/A   Clear
5:15 PM 77.0 °F - 35.6 °F 22% 29.88 in 10.0 mi WNW 6.9 mph - N/A   Clear
5:35 PM 75.2 °F - 35.6 °F 24% 29.87 in 10.0 mi WNW 9.2 mph - N/A   Clear
5:55 PM 73.4 °F - 35.6 °F 25% 29.86 in 10.0 mi West 3.5 mph - N/A   Clear
6:15 PM 73.4 °F - 41.0 °F 31% 29.86 in 10.0 mi Calm Calm - N/A   Clear
6:35 PM 71.6 °F - 37.4 °F 29% 29.86 in 10.0 mi Calm Calm - N/A   Clear
6:55 PM 68.0 °F - 35.6 °F 30% 29.86 in 10.0 mi Calm Calm - N/A   Clear
7:15 PM 64.4 °F - 41.0 °F 42% 29.86 in 10.0 mi South 4.6 mph - N/A   Clear
7:35 PM 62.6 °F - 39.2 °F 42% 29.87 in 10.0 mi South 4.6 mph - N/A   Clear
7:55 PM 62.6 °F - 39.2 °F 42% 29.87 in 10.0 mi South 3.5 mph - N/A   Clear
8:15 PM 60.8 °F - 39.2 °F 45% 29.87 in 10.0 mi South 3.5 mph - N/A   Clear
8:35 PM 59.0 °F - 41.0 °F 51% 29.87 in 10.0 mi South 4.6 mph - N/A   Clear
8:55 PM 59.0 °F - 39.2 °F 48% 29.87 in 10.0 mi South 3.5 mph - N/A   Clear
9:15 PM 59.0 °F - 41.0 °F 51% 29.87 in 10.0 mi Calm Calm - N/A   Clear
9:35 PM 55.4 °F - 41.0 °F 58% 29.88 in 10.0 mi Calm Calm - N/A   Clear
9:55 PM 53.6 °F - 42.8 °F 67% 29.88 in 10.0 mi Calm Calm - N/A   Clear
10:15 PM 55.4 °F - 39.2 °F 54% 29.88 in 10.0 mi South 3.5 mph - N/A   Clear
10:35 PM 55.4 °F - 37.4 °F 51% 29.87 in 10.0 mi Calm Calm - N/A   Clear
10:55 PM 55.4 °F - 35.6 °F 47% 29.87 in 10.0 mi South 5.8 mph - N/A   Clear
11:15 PM 55.4 °F - 37.4 °F 51% 29.86 in 10.0 mi South 3.5 mph - N/A   Clear
11:35 PM 55.4 °F - 37.4 °F 51% 29.86 in 10.0 mi South 4.6 mph - N/A   Clear
11:55 PM 55.4 °F - 37.4 °F 51% 29.86 in 10.0 mi SSE 3.5 mph - N/A   Clear